SL-16 DEB, 22419

Orbit data source: Space-Track

SL-16 DEB, 22419 is space debris in LEO originally from a launch on Fri, 25 Dec 1992 UTC launched from the Tyuratam Missile And Space Complex (TTMTR). Debris objects in space refer to the collection of defunct objects orbiting the Earth. Examples of debris include non-operational satellites, rocket bodies, and fragments generated from explosions, collisions, or faulty payload assembly.

Loading next visibility...
Identifier
22419, 1992-093DL
Orbit
LEO
Country
Flag of CISCIS
Related business
Manufacturer
Unknown
Mission
Spacecraft
Bus & Motor
Unknown
Mass
Unknown
Launch date (UTC)
1992-12-25 (33 years ago)
Launch vehicle
Unknown
Launch site
Tyuratam Missile And Space Complex (TTMTR)
Object type
Payload
Rocket body
Debris
Shape & HBR
Unknown shape, 0.1 m
Radar Cross Section
Small (<0.1 m²)

Expand to show TLE details & history
Last TLE update: 8 hours ago

TLE from 8 hours ago
0 SL-16 DEB
1 22419U 92093DL  26037.08855485  .00000272  00000-0  21981-3 0  9997
2 22419  71.1782  70.5904 0104163  29.6650 331.0315 13.96031348682790
Epoch: 2026-02-06T02:07Z
TLE epoch observation values (Epoch: 2026-02-06T02:07:31.139Z)
Latitude
-0.00002°
Longitude
-97.5208°
Altitude
843.744 km
Speed
7.465 km/s
True Right ascension
04h 42m 21s
True Declination
0° 00' 00"
Sunlit
Object was in daylight at epoch
Visualization orbit readout
Latitude
Unknown
Longitude
Unknown
Altitude
Unknown
Speed
Unknown
Apparent Right ascension
Unknown
Apparent Declination
Unknown
Sunlit
N/A
Visualization observer readout
Local Sidereal Time
12:08:30
Azimuth
Unknown
Elevation
Unknown
Doppler factor
Unknown
Orbital elements
Apogee altitude
981.365 km
Perigee altitude
829.628 km
Semi-major axis
7,283.633 km
Eccentricity
0.01042
Inclination
71.1782°
RAAN
70.5904°
Arg. of periapsis
29.665°
True anomaly
330.44675°
Mean anomaly
331.0315°
Eccentric anomaly
330.73979°
Mean motion
3.49157 °/min
Orbital period
103.11 mins
BSTAR
0.00021981
Loading maneuver chart data...
Computing Atmospheric mass density...
Loading historical data...
Loading historical data...
Loading historical data...
Loading historical data...
Loading historical data...
Loading historical data...
Loading historical data...

Documentation

Showing up to 5 results
|